Flag for Peru Weather past 2 weeks in Arequipa, Arequipa, Peru

Now
70 °F

Scattered clouds.


Feels Like: 70 °F
Forecast: 58 / 74 °F
Wind: 5 mph from North

Location: Arequipa Airport

Current Time: Jan 31, 2015 at 10:11:07 AM

Latest Report: Jan 31, 2015 at 9:00 AM


Visibility: N/A

Pressure: 30.27 "Hg

Humidity: 50%

Dew point: 50 °F

Location of ArequipaLocation

Historic Weather in Arequipa — Graph

°F

Arequipa temperature yesterday

Maximum temperature yesterday: 70 °F (at 12:00 PM)
Minimum temperature yesterday: 55 °F (at 7:00 AM)
Average temperature yesterday: 62 °F

Past Weeks' High & Low Weather Summary

 TemperatureHumidityPressure
High70 °F (Jan 16, 12:00 PM)100% (Jan 27, 8:00 PM)30.39 "Hg (Jan 27, 8:00 PM)
Low45 °F (Jan 19, 5:00 AM)13% (Jan 16, 9:00 AM)30.18 "Hg (Jan 25, 4:00 PM)
Average59 °F59%30.29 "Hg
* Reported Jan 16 9:00 AM — Jan 31 9:00 AM, Arequipa, Weather by CustomWeather, © 2014

Note: Actual official high and low records may vary slightly from our data, if they occured in-between our weather recording intervals... More about our weather records

Advertising

Arequipa weather history for previous 24 hours

 ConditionsComfort  
Time TempWeatherWind HumidityBarometerVisibility
9:00 AM
Jan 31
70 °FScattered clouds.5 mph50%30.27 "HgN/A
8:00 AM64 °FPartly sunny.3 mph60%30.27 "HgN/A
6:00 AM55 °FPartly sunny.3 mph77%30.24 "HgN/A
5:00 AM55 °FPassing clouds.5 mph77%30.21 "HgN/A
2:00 AM55 °FPassing clouds.No wind82%30.24 "HgN/A
11:00 PM
Jan 30
61 °FPassing clouds.2 mph72%30.27 "HgN/A
10:00 PM59 °FPartly cloudy.No wind77%30.30 "HgN/A
9:00 PM59 °FPartly cloudy.3 mph77%30.27 "HgN/A
8:00 PM59 °FPartly cloudy.2 mph77%30.27 "HgN/A
7:00 PM59 °FPartly cloudy.5 mph82%30.27 "HgN/A
6:00 PM61 °FBroken clouds.3 mph72%30.24 "HgN/A
5:00 PM61 °FBroken clouds.5 mph72%30.24 "HgN/A
4:00 PM61 °FPartly sunny.7 mph72%30.21 "HgN/A
3:00 PM63 °FScattered clouds.12 mph64%30.24 "HgN/A
1:00 PM68 °FScattered clouds.14 mph49%30.24 "HgN/A
12:00 PM70 °FScattered clouds.12 mph46%30.27 "HgN/A
11:00 AM68 °FScattered clouds.10 mph46%30.27 "HgN/A
10:00 AM66 °FPartly sunny.6 mph49%30.27 "HgN/A
Weather by CustomWeather, © 2014

See weather overviewHow to use our weather pages